Regional Weather Roundup
Issued by NWS

Home | Current Version | Previous Version | Text Only | Print | Product List | Glossary On
Versions: 1 2 3 4 5 6 7 8 9 10 11 12 13 14 15 16 17 18 19 20 21 22 23 24 25 26 27 28 29 30 31 32 33 34 35 36 37 38 39 40 41 42 43 44 45 46 47 48 49 50
000
ASUS43 KDTX 302010
RWRMI
MICHIGAN HOURLY REGIONAL WEATHER ROUNDUP
NATIONAL WEATHER SERVICE DETROIT/PONTIAC MI
400 PM EDT TUE JUN 30 2015

NOTE: "FAIR" INDICATES FEW OR NO CLOUDS BELOW 12,000 FEET WITH NO
SIGNIFICANT WEATHER AND/OR OBSTRUCTION TO VISIBILITY.

MIZ047>049-052>055-059>063-066>070-074>076-081>083-302100-
SOUTHEAST LOWER MICHIGAN

CITY           SKY/WX    TMP DP  RH WIND       PRES   REMARKS
ADRIAN         PTSUNNY   73  62  68 W10       29.77F
ALMA           LGT RAIN  69  61  75 W5        29.78S
ANN ARBOR      PTSUNNY   74  64  71 VRB5      29.76F
BAD AXE        CLOUDY    66  57  72 E3        29.79F
CARO           CLOUDY    71  60  69 E6        29.77S HAZE
DETROIT CITY   CLOUDY    72  62  71 E6        29.75F
DETROIT        CLOUDY    73  60  63 W10       29.76F
FLINT          PTSUNNY   75  59  57 NW6       29.76F
GROSSE ILE     CLOUDY    73  64  73 SW6       29.75F
HILLSDALE      MOSUNNY   73  66  77 SW7       29.78F
HOWELL         CLOUDY    72  60  64 W3        29.77F

CITY           SKY/WX    TMP DP  RH WIND       PRES   REMARKS
JACKSON        PTSUNNY   73  63  70 VRB7      29.76F
LAMBERTVILLE   CLOUDY    76  63  63 W7        29.77F
LANSING        CLOUDY    69  61  75 CALM      29.77F
LAPEER         PTSUNNY   70  58  66 CALM      29.77S
MASON          HVY RAIN  64  60  88 CALM      29.77S VSB 1/4
MONROE         CLOUDY    74  63  69 W9        29.76S
MT. CLEMENS    PTSUNNY   70  62  76 E8        29.74F
PONTIAC        CLOUDY    74  58  57 W10       29.75F
PORT HOPE        N/A     62  56  80 NE5       29.79S
PORT HURON     PTSUNNY   70  63  78 NE5       29.76F
TRI CITIES     CLOUDY    72  60  66 NE10      29.77F
MIDLAND        CLOUDY    70  60  68 NE5       29.77S
TROY           CLOUDY    75  60  59 W5        29.77S
SAGINAW HB     CLOUDY    73  59  60 N6        29.76F
$$
MIZ043>046-050>051-056>058-064>065-071>073-077>080-302100-
SOUTHWEST LOWER MICHIGAN

CITY           SKY/WX    TMP DP  RH WIND       PRES   REMARKS
BATTLE CREEK   CLOUDY    73  63  70 W13G21    29.77F
BENTON HARBOR  CLOUDY    69  61  75 W10       29.82S
BIG RAPIDS     PTSUNNY   66  61  86 CALM      29.79S
COLDWATER      CLOUDY    73  62  69 W6        29.77F
FREMONT        RAIN      64  63  96 NW5       29.78S
HOLLAND        CLOUDY    67  61  81 W8        29.80F HAZE
GRAND RAPIDS   PTSUNNY   72  61  68 W12       29.77F HAZE
IONIA          PTSUNNY   69  65  89 NE3       29.77F
KALAMAZOO      MOSUNNY   73  58  59 W15       29.79R
LUDINGTON      CLOUDY    63  59  86 N12       29.81S
MARSHALL       CLOUDY    74  62  66 SW12      29.76S
MOUNT PLEASANT RAIN      65  63  92 CALM      29.77F
MUSKEGON       CLOUDY    67  61  81 W12       29.79S HAZE
SOUTH HAVEN    CLOUDY    66  60  81 W9        29.81S HAZE
$$
MIZ016>042-302100-
NORTHERN LOWER MICHIGAN

CITY           SKY/WX    TMP DP  RH WIND       PRES   REMARKS
ALPENA         LGT RAIN  65  61  87 SW3       29.81S
BEAVER ISLAND  CLOUDY    58  53  83 NW9       29.83S
BELLAIRE       PTSUNNY   70  59  66 N7        29.79S
CADILLAC       CLOUDY    69  58  67 SW5       29.79S
CHARLEVOIX     CLOUDY    62  59  90 NW8       29.84S
FRANKFORT      CLOUDY    56  50  80 NW7       29.84R HAZE
GAYLORD        LGT RAIN  61  61 100 VRB5      29.81S FOG
GRAYLING       CLOUDY    64  60  85 N3        29.81S
HARBOR SPRINGS LGT RAIN  65  62  89 N3        29.80S
HOUGHTON LAKE  CLOUDY    68  58  70 W5        29.80S
MANISTEE       CLOUDY    57  52  82 N13       29.82S
OSCODA         LGT RAIN  67  56  66 CALM      29.80S
PELLSTON       LGT RAIN  66  63  90 NW8       29.81S
ROGERS CITY    RAIN      64  60  88 S7        29.82S
TRAVERSE CITY  CLOUDY    63  58  83 NW9       29.79R
$$
MIZ007>008-015-302100-
EASTERN UPPER MICHIGAN

CITY           SKY/WX    TMP DP  RH WIND       PRES   REMARKS
KINROSS        CLOUDY    57  57 100 N5        29.81S
MACKINAC ISLAN LGT RAIN  62  62 100 W6        29.80S
NEWBERRY       CLOUDY    54  53  96 W8        29.84R
S. S. MARIE    LGT RAIN  63  60  90 W6        29.80S
MUNISING         N/A     46  44  93 NW17      29.90F
$$
MIZ004>006-011>014-085-302100-
CENTRAL UPPER MICHIGAN

CITY           SKY/WX    TMP DP  RH WIND       PRES   REMARKS
MANISTIQUE     PTSUNNY   54  49  82 NW14G23   29.84F
ESCANABA       CLOUDY   N/A N/A N/A N14G21    29.85S
MENOMINEE      CLOUDY    66  54  63 N9        29.84S
SAWYER-GWINN   CLOUDY    48  43  81 N14G20    29.91S
$$
MIZ001>003-009>011-084-302100-
WESTERN UPPER MICHIGAN

CITY           SKY/WX    TMP DP  RH WIND       PRES   REMARKS
IRON MOUNTAIN  CLOUDY    59  49  69 NW16G22   29.89S
HOUGHTON       CLOUDY    57  41  55 NE12      29.97R
COPPER HARBOR    N/A     49  41  74 N9        29.96S
IRONWOOD       PTSUNNY   55  48  76 N9        29.96S
$$

ABBREVIATIONS USED IN REMARKS
   TC - TEMPERATURE IN CELSIUS
  WCI - WIND CHILL INDEX
   HX - HEAT INDEX
  VSB - VISIBILITY



USA.gov is the U.S. government's official web portal to all federal, state and local government web resources and services.